Location: Banios
(43.0451°N, 0.2335°E)
Time: 20:17:09
(UTC+00:00)

Cosmos 2292 Rocket - Pass Details

Date: 25 January 2021
Orbit: 380 x 1450 km, 83.0° (Epoch: 01 March)

Event Time Altitude Azimuth Distance (km) Brightness Sun altitude
Rises 06:09:55 0° 360° (N) 2,268 6.3 -13.0°
Reaches altitude 10° 06:11:54 10° 9° (N) 1,429 5.4 -12.7°
Maximum altitude 06:14:45 39° 80° (E) 639 4.2 -12.2°
Drops below altitude 10° 06:17:57 10° 152° (SSE) 1,614 6.4 -11.6°
Sets 06:20:19 0° 160° (SSE) 2,615 7.3 -11.2°
